Tracking 30692 objects as of 16-Jun-2025
HD Live streaming from Space Station
objects crossing your sky now

SL-14 DEB

Track SL-14 DEB now!
10-day predictions


NORAD ID: 45330
Int'l Code: 1991-056BU
Perigee: 1,064.6 km
Apogee: 1,179.1 km
Inclination: 82.6 °
Period: 107.6 minutes
Semi major axis: 7492 km
RCS: Unknown
Launch date: August 15, 1991
Source: Commonwealth of Independent States (former USSR) (CIS)
Launch site: PLESETSK MISSILE AND SPACE COMPLEX (PKMTR)

Note: This is SATELLITE DEBRIS
Your satellite tracking list
Your tracking list is empty




NASA's NSSDC Master Catalog

Two Line Element Set (TLE):
1 45330U 91056BU  25166.24121353  .00001016  00000-0  18524-2 0  9997
2 45330  82.5646 355.0122 0076398  95.0164 265.9697 13.38546260259956
Source of the keplerian elements: AFSPC